Time,TemperatureF,DewpointF,PressureIn,WindDirection,WindDirectionDegrees,WindSpeedMPH,WindSpeedGustMPH,Humidity,HourlyPrecipIn,Conditions,Clouds,dailyrainin,SoftwareType,DateUTC
2013-10-12 00:02:00,59.5,50.0,30.03,NE,47,0.0,2.0,71,0.00,,,0.00,weatherlink.com 1.10,2013-10-12 04:02:00,
2013-10-12 00:17:00,59.2,51.0,30.03,ENE,57,0.0,1.0,74,0.00,,,0.00,weatherlink.com 1.10,2013-10-12 04:17:00,
2013-10-12 00:32:00,58.4,51.0,30.03,SE,136,0.0,3.0,76,0.00,,,0.00,weatherlink.com 1.10,2013-10-12 04:32:00,
2013-10-12 00:47:00,57.5,51.0,30.03,SE,130,0.0,1.0,78,0.00,,,0.00,weatherlink.com 1.10,2013-10-12 04:47:00,
2013-10-12 01:02:00,56.5,51.0,30.03,SE,134,0.0,1.0,81,0.00,,,0.00,weatherlink.com 1.10,2013-10-12 05:02:00,
2013-10-12 01:17:00,55.5,50.0,30.04,SSW,208,0.0,1.0,83,0.00,,,0.00,weatherlink.com 1.10,2013-10-12 05:17:00,
2013-10-12 01:32:00,55.1,51.0,30.03,SSW,208,0.0,0.0,85,0.00,,,0.00,weatherlink.com 1.10,2013-10-12 05:32:00,
2013-10-12 01:47:00,54.9,51.0,30.03,SSE,153,0.0,0.0,87,0.00,,,0.00,weatherlink.com 1.10,2013-10-12 05:47:00,
2013-10-12 02:02:00,54.2,50.0,30.04,SSE,153,0.0,0.0,86,0.00,,,0.00,weatherlink.com 1.10,2013-10-12 06:02:00,
2013-10-12 02:17:00,52.9,50.0,30.04,SSE,154,0.0,0.0,88,0.00,,,0.00,weatherlink.com 1.10,2013-10-12 06:17:00,
2013-10-12 02:32:00,51.8,49.0,30.05,SSE,153,0.0,0.0,89,0.00,,,0.00,weatherlink.com 1.10,2013-10-12 06:32:00,
2013-10-12 02:47:00,52.1,50.0,30.05,SSE,154,0.0,0.0,92,0.00,,,0.00,weatherlink.com 1.10,2013-10-12 06:47:00,
2013-10-12 03:02:00,52.5,50.0,30.05,SSE,153,0.0,0.0,92,0.00,,,0.00,weatherlink.com 1.10,2013-10-12 07:02:00,
2013-10-12 03:17:00,51.9,50.0,30.04,SSE,153,0.0,0.0,92,0.00,,,0.00,weatherlink.com 1.10,2013-10-12 07:17:00,
2013-10-12 03:32:00,51.4,49.0,30.04,SSE,153,0.0,1.0,92,0.00,,,0.00,weatherlink.com 1.10,2013-10-12 07:32:00,
2013-10-12 03:47:00,50.8,49.0,30.04,SSE,153,0.0,0.0,93,0.00,,,0.00,weatherlink.com 1.10,2013-10-12 07:47:00,
2013-10-12 04:03:00,50.9,49.0,30.04,SSE,153,0.0,0.0,94,0.00,,,0.00,weatherlink.com 1.10,2013-10-12 08:03:00,
2013-10-12 04:18:00,51.1,50.0,30.04,SSE,153,0.0,0.0,94,0.00,,,0.00,weatherlink.com 1.10,2013-10-12 08:18:00,
2013-10-12 04:33:00,50.3,49.0,30.04,SSE,153,0.0,0.0,94,0.00,,,0.00,weatherlink.com 1.10,2013-10-12 08:33:00,
2013-10-12 04:48:00,49.9,48.0,30.04,SSE,153,0.0,0.0,94,0.00,,,0.00,weatherlink.com 1.10,2013-10-12 08:48:00,
2013-10-12 05:03:00,50.2,49.0,30.04,SSE,153,0.0,0.0,95,0.00,,,0.00,weatherlink.com 1.10,2013-10-12 09:03:00,
2013-10-12 05:18:00,50.8,50.0,30.04,SSE,153,0.0,0.0,95,0.00,,,0.00,weatherlink.com 1.10,2013-10-12 09:18:00,
2013-10-12 05:33:00,50.8,50.0,30.04,SSE,153,0.0,0.0,95,0.00,,,0.00,weatherlink.com 1.10,2013-10-12 09:33:00,
2013-10-12 05:48:00,50.7,49.0,30.04,SSE,154,0.0,0.0,95,0.00,,,0.00,weatherlink.com 1.10,2013-10-12 09:48:00,
2013-10-12 06:03:00,50.2,49.0,30.04,SSE,153,0.0,0.0,95,0.00,,,0.00,weatherlink.com 1.10,2013-10-12 10:03:00,
2013-10-12 06:18:00,49.8,49.0,30.04,SSE,153,0.0,0.0,95,0.00,,,0.00,weatherlink.com 1.10,2013-10-12 10:18:00,
2013-10-12 06:33:00,49.4,48.0,30.04,SSE,153,0.0,0.0,95,0.00,,,0.00,weatherlink.com 1.10,2013-10-12 10:33:00,
2013-10-12 06:48:00,49.1,48.0,30.05,SSE,153,0.0,0.0,96,0.00,,,0.00,weatherlink.com 1.10,2013-10-12 10:48:00,
2013-10-12 07:03:00,49.3,48.0,30.05,SSE,153,0.0,0.0,96,0.00,,,0.00,weatherlink.com 1.10,2013-10-12 11:03:00,
2013-10-12 07:18:00,49.5,48.0,30.04,SSE,153,0.0,0.0,96,0.00,,,0.00,weatherlink.com 1.10,2013-10-12 11:18:00,
2013-10-12 07:33:00,49.5,48.0,30.05,SSE,154,0.0,0.0,96,0.00,,,0.00,weatherlink.com 1.10,2013-10-12 11:33:00,
2013-10-12 07:48:00,49.0,48.0,30.05,SSE,153,0.0,0.0,96,0.00,,,0.00,weatherlink.com 1.10,2013-10-12 11:48:00,
2013-10-12 08:03:00,49.1,48.0,30.05,SSE,153,0.0,0.0,96,0.00,,,0.00,weatherlink.com 1.10,2013-10-12 12:03:00,
2013-10-12 08:18:00,49.2,48.0,30.05,SSE,153,0.0,0.0,96,0.00,,,0.00,weatherlink.com 1.10,2013-10-12 12:18:00,
2013-10-12 08:33:00,49.2,48.0,30.05,SSE,154,0.0,0.0,96,0.00,,,0.00,weatherlink.com 1.10,2013-10-12 12:33:00,
2013-10-12 08:48:00,49.9,49.0,30.06,SSE,153,0.0,1.0,97,0.00,,,0.00,weatherlink.com 1.10,2013-10-12 12:48:00,
2013-10-12 09:03:00,50.7,50.0,30.06,SSE,154,0.0,0.0,97,0.00,,,0.00,weatherlink.com 1.10,2013-10-12 13:03:00,
2013-10-12 09:18:00,52.0,51.0,30.06,NE,56,0.0,3.0,97,0.00,,,0.00,weatherlink.com 1.10,2013-10-12 13:18:00,
2013-10-12 09:33:00,53.9,53.0,30.06,South,181,2.0,5.0,97,0.00,,,0.00,weatherlink.com 1.10,2013-10-12 13:33:00,
2013-10-12 09:48:00,56.2,55.0,30.06,ESE,120,2.0,4.0,95,0.00,,,0.00,weatherlink.com 1.10,2013-10-12 13:48:00,
2013-10-12 10:03:00,59.3,55.0,30.06,ESE,111,2.0,5.0,84,0.00,,,0.00,weatherlink.com 1.10,2013-10-12 14:03:00,
2013-10-12 10:18:00,62.2,55.0,30.06,South,190,3.0,5.0,77,0.00,,,0.00,weatherlink.com 1.10,2013-10-12 14:18:00,
2013-10-12 10:33:00,64.9,56.0,30.06,SSE,158,2.0,4.0,74,0.00,,,0.00,weatherlink.com 1.10,2013-10-12 14:33:00,
2013-10-12 10:48:00,66.8,56.0,30.05,SE,143,1.0,7.0,68,0.00,,,0.00,weatherlink.com 1.10,2013-10-12 14:48:00,
2013-10-12 11:03:00,68.9,55.0,30.05,SE,131,3.0,7.0,62,0.00,,,0.00,weatherlink.com 1.10,2013-10-12 15:03:00,
2013-10-12 11:18:00,69.8,55.0,30.05,SSE,148,6.0,8.0,60,0.00,,,0.00,weatherlink.com 1.10,2013-10-12 15:18:00,
2013-10-12 11:33:00,70.5,55.0,30.05,SSW,204,3.0,8.0,58,0.00,,,0.00,weatherlink.com 1.10,2013-10-12 15:33:00,
2013-10-12 11:48:00,71.2,55.0,30.04,SSE,152,3.0,8.0,56,0.00,,,0.00,weatherlink.com 1.10,2013-10-12 15:48:00,
2013-10-12 12:04:00,72.3,57.0,30.04,SE,146,8.0,8.0,59,0.00,,,0.00,weatherlink.com 1.10,2013-10-12 16:04:00,
2013-10-12 12:19:00,72.8,55.0,30.04,SSE,155,5.0,10.0,53,0.00,,,0.00,weatherlink.com 1.10,2013-10-12 16:19:00,
2013-10-12 12:34:00,73.2,55.0,30.04,SSE,156,8.0,11.0,54,0.00,,,0.00,weatherlink.com 1.10,2013-10-12 16:34:00,
2013-10-12 12:49:00,73.9,55.0,30.04,ESE,118,9.0,9.0,52,0.00,,,0.00,weatherlink.com 1.10,2013-10-12 16:49:00,
2013-10-12 13:04:00,74.7,56.0,30.03,SW,221,2.0,12.0,53,0.00,,,0.00,weatherlink.com 1.10,2013-10-12 17:04:00,
2013-10-12 13:19:00,75.3,55.0,30.03,South,183,5.0,9.0,50,0.00,,,0.00,weatherlink.com 1.10,2013-10-12 17:19:00,
2013-10-12 13:34:00,75.3,55.0,30.03,SW,215,5.0,10.0,50,0.00,,,0.00,weatherlink.com 1.10,2013-10-12 17:34:00,
2013-10-12 13:49:00,75.5,55.0,30.02,WSW,243,7.0,12.0,50,0.00,,,0.00,weatherlink.com 1.10,2013-10-12 17:49:00,
2013-10-12 14:04:00,76.2,56.0,30.02,SSE,154,4.0,11.0,49,0.00,,,0.00,weatherlink.com 1.10,2013-10-12 18:04:00,
2013-10-12 14:19:00,76.2,55.0,30.01,SW,214,9.0,13.0,48,0.00,,,0.00,weatherlink.com 1.10,2013-10-12 18:19:00,
2013-10-12 14:34:00,76.3,55.0,30.01,SSE,167,5.0,12.0,48,0.00,,,0.00,weatherlink.com 1.10,2013-10-12 18:34:00,
2013-10-12 14:49:00,76.3,54.0,30.00,South,179,10.0,14.0,46,0.00,,,0.00,weatherlink.com 1.10,2013-10-12 18:49:00,
2013-10-12 15:04:00,76.9,54.0,30.00,South,191,7.0,14.0,46,0.00,,,0.00,weatherlink.com 1.10,2013-10-12 19:04:00,
2013-10-12 15:19:00,77.5,53.0,29.99,SE,135,5.0,16.0,43,0.00,,,0.00,weatherlink.com 1.10,2013-10-12 19:19:00,
2013-10-12 15:34:00,78.0,54.0,29.99,South,188,9.0,14.0,44,0.00,,,0.00,weatherlink.com 1.10,2013-10-12 19:34:00,
2013-10-12 15:49:00,77.9,54.0,29.99,SSW,205,7.0,14.0,44,0.00,,,0.00,weatherlink.com 1.10,2013-10-12 19:49:00,
2013-10-12 16:04:00,77.1,54.0,29.99,South,190,8.0,13.0,45,0.00,,,0.00,weatherlink.com 1.10,2013-10-12 20:04:00,
2013-10-12 16:19:00,76.5,54.0,29.99,SW,232,6.0,13.0,46,0.00,,,0.00,weatherlink.com 1.10,2013-10-12 20:19:00,
2013-10-12 16:34:00,76.1,55.0,29.99,SSW,194,6.0,10.0,49,0.00,,,0.00,weatherlink.com 1.10,2013-10-12 20:34:00,
2013-10-12 17:04:00,75.5,55.0,30.00,South,184,5.0,10.0,49,0.00,,,0.00,weatherlink.com 1.10,2013-10-12 21:04:00,
2013-10-12 17:19:00,75.1,56.0,30.00,SSW,208,3.0,9.0,51,0.00,,,0.00,weatherlink.com 1.10,2013-10-12 21:19:00,
2013-10-12 17:33:00,74.6,55.0,30.00,South,184,6.0,6.0,51,0.00,,,0.00,weatherlink.com 1.10,2013-10-12 21:33:00,
2013-10-12 17:49:00,74.5,57.0,30.00,SW,214,2.0,4.0,54,0.00,,,0.00,weatherlink.com 1.10,2013-10-12 21:49:00,
2013-10-12 18:04:00,74.1,58.0,30.01,SSW,201,3.0,4.0,57,0.00,,,0.00,weatherlink.com 1.10,2013-10-12 22:04:00,
2013-10-12 18:19:00,73.7,57.0,30.01,SSW,201,4.0,6.0,57,0.00,,,0.00,weatherlink.com 1.10,2013-10-12 22:19:00,
2013-10-12 18:34:00,73.7,58.0,30.01,SW,220,2.0,4.0,58,0.00,,,0.00,weatherlink.com 1.10,2013-10-12 22:34:00,
2013-10-12 19:04:00,72.1,57.0,30.01,SSE,165,2.0,2.0,60,0.00,,,0.00,weatherlink.com 1.10,2013-10-12 23:04:00,
2013-10-12 19:19:00,71.3,57.0,30.02,SSW,193,1.0,3.0,62,0.00,,,0.00,weatherlink.com 1.10,2013-10-12 23:19:00,
2013-10-12 19:34:00,70.4,58.0,30.02,SSE,153,0.0,1.0,65,0.00,,,0.00,weatherlink.com 1.10,2013-10-12 23:34:00,
2013-10-12 19:49:00,69.9,58.0,30.02,SE,135,1.0,2.0,66,0.00,,,0.00,weatherlink.com 1.10,2013-10-12 23:49:00,
2013-10-12 20:04:00,69.9,58.0,30.03,South,169,1.0,2.0,67,0.00,,,0.00,weatherlink.com 1.10,2013-10-13 00:04:00,
2013-10-12 20:19:00,69.6,58.0,30.03,South,170,0.0,1.0,67,0.00,,,0.00,weatherlink.com 1.10,2013-10-13 00:19:00,
2013-10-12 20:34:00,69.5,58.0,30.04,South,190,1.0,3.0,68,0.00,,,0.00,weatherlink.com 1.10,2013-10-13 00:34:00,
2013-10-12 20:49:00,69.4,59.0,30.04,SSW,200,2.0,2.0,69,0.00,,,0.00,weatherlink.com 1.10,2013-10-13 00:49:00,
2013-10-12 21:19:00,68.1,59.0,30.05,South,190,0.0,1.0,73,0.00,,,0.00,weatherlink.com 1.10,2013-10-13 01:19:00,
2013-10-12 21:34:00,67.6,59.0,30.05,SSW,203,0.0,1.0,75,0.00,,,0.00,weatherlink.com 1.10,2013-10-13 01:34:00,
2013-10-12 21:49:00,67.6,60.0,30.06,SW,224,1.0,2.0,76,0.00,,,0.00,weatherlink.com 1.10,2013-10-13 01:49:00,
2013-10-12 22:04:00,67.8,60.0,30.07,WNW,293,4.0,4.0,77,0.00,,,0.00,weatherlink.com 1.10,2013-10-13 02:04:00,
2013-10-12 22:19:00,68.3,62.0,30.07,West,278,3.0,8.0,79,0.00,,,0.00,weatherlink.com 1.10,2013-10-13 02:19:00,
2013-10-12 22:34:00,67.9,62.0,30.07,WNW,300,1.0,5.0,80,0.00,,,0.00,weatherlink.com 1.10,2013-10-13 02:34:00,
2013-10-12 22:50:00,67.5,62.0,30.08,West,278,2.0,2.0,81,0.00,,,0.00,weatherlink.com 1.10,2013-10-13 02:50:00,
2013-10-12 23:05:00,67.1,62.0,30.08,WNW,285,3.0,6.0,83,0.00,,,0.00,weatherlink.com 1.10,2013-10-13 03:05:00,
2013-10-12 23:20:00,66.7,62.0,30.09,West,273,3.0,5.0,85,0.00,,,0.00,weatherlink.com 1.10,2013-10-13 03:20:00,
2013-10-12 23:35:00,66.2,62.0,30.10,WNW,284,5.0,9.0,86,0.00,,,0.00,weatherlink.com 1.10,2013-10-13 03:35:00,
2013-10-12 23:50:00,65.7,62.0,30.10,WNW,297,2.0,9.0,87,0.00,,,0.00,weatherlink.com 1.10,2013-10-13 03:50:00,